{"data":{"norad_id":51104,"intl_designator":"2022-005A","name":"STARLINK-3366","alt_names":[],"object_type":"PAYLOAD","status":"ACTIVE","operator":null,"country":"US","launch_date":"2022-01-19","launch_site_code":"AFETR","launch_vehicle":null,"mission":null,"orbit_class":"UNKNOWN","rcs_meters":null,"size_class":null,"mass_kg":null,"dimensions":null,"purposes":["comms"],"wikipedia_slug":null,"has_3d_model":false,"image_url":null,"decayed_at":null,"tle_current":{"epoch":"2026-05-25T04:20:00.974976Z","epoch_age_seconds":59788,"freshness":"FRESH","line1":"1 51104U 22005A   26145.18056684  .00000046  00000+0  20964-4 0  9990","line2":"2 51104  53.2148 305.7401 0001304  82.5095 277.6045 15.08838819240427","mean_motion":15.08838819,"eccentricity":0.0001304,"inclination_deg":53.2148,"raan_deg":305.7401,"arg_perigee_deg":82.5095,"mean_anomaly_deg":277.6045,"bstar":2.0964e-5,"rev_number":24042,"period_min":95.437629378755,"perigee_km":538.84490673755,"apogee_km":540.64909088444,"semimajor_km":6917.883998811,"source":"CELESTRAK","updated_at":"2026-05-25T13:38:16.884178Z"}}}